date,time,SUV Intensity [MED/Hr],UV Index,Daily total [MED],Since Last [MED]
21/05/2022,00:08:19,-0.001,0.0,0.0,0.0
21/05/2022,00:09:17,-0.000,0.0,0.0,0.0
21/05/2022,00:10:19,-0.000,0.0,0.0,0.0
21/05/2022,00:11:18,0.001,0.0,0.0,0.0
21/05/2022,00:12:18,0.001,0.0,0.0,0.0
21/05/2022,00:13:18,-0.001,0.0,0.0,0.0
21/05/2022,00:14:18,0.000,0.0,0.0,0.0
21/05/2022,00:15:18,-0.000,0.0,0.0,0.0
21/05/2022,00:16:18,0.000,0.0,0.0,0.0
21/05/2022,00:17:26,-0.001,0.0,0.0,0.0
21/05/2022,00:19:19,0.000,0.0,0.0,0.0
21/05/2022,00:20:27,0.000,0.0,0.0,0.0
21/05/2022,00:22:19,0.000,0.0,0.0,0.0
21/05/2022,00:24:19,0.001,0.0,0.0,0.0
21/05/2022,00:25:19,-0.000,0.0,0.0,0.0
21/05/2022,00:26:19,0.001,0.0,0.0,0.0
21/05/2022,00:27:19,0.000,0.0,0.0,0.0
21/05/2022,00:28:19,-0.000,0.0,0.0,0.0
21/05/2022,00:29:19,-0.001,0.0,0.0,0.0
21/05/2022,00:30:27,-0.000,0.0,0.0,0.0
21/05/2022,00:32:19,0.000,0.0,0.0,0.0
21/05/2022,00:33:19,0.000,0.0,0.0,0.0
21/05/2022,00:34:19,-0.001,0.0,0.0,0.0
21/05/2022,00:35:19,0.000,0.0,0.0,0.0
21/05/2022,00:36:18,0.000,0.0,0.0,0.0
21/05/2022,00:37:19,0.000,0.0,0.0,0.0
21/05/2022,00:38:18,0.000,0.0,0.0,0.0
21/05/2022,00:40:19,0.000,0.0,0.0,0.0
21/05/2022,00:41:19,0.001,0.0,0.0,0.0
21/05/2022,00:42:18,0.000,0.0,0.0,0.0
21/05/2022,00:43:18,-0.000,0.0,0.0,0.0
21/05/2022,00:44:18,0.000,0.0,0.0,0.0
21/05/2022,00:45:19,-0.001,0.0,0.0,0.0
21/05/2022,00:46:18,0.001,0.0,0.0,0.0
21/05/2022,00:47:18,0.000,0.0,0.0,0.0
21/05/2022,00:48:18,0.000,0.0,0.0,0.0
21/05/2022,00:49:19,-0.001,0.0,0.0,0.0
21/05/2022,00:50:18,0.001,0.0,0.0,0.0
21/05/2022,00:51:18,-0.001,0.0,0.0,0.0
21/05/2022,00:52:18,0.000,0.0,0.0,0.0
21/05/2022,00:53:18,-0.001,0.0,0.0,0.0
21/05/2022,00:54:19,0.000,0.0,0.0,0.0
21/05/2022,00:56:19,-0.001,0.0,0.0,0.0
21/05/2022,00:57:19,0.000,0.0,0.0,0.0
21/05/2022,00:58:19,0.000,0.0,0.0,0.0
21/05/2022,00:59:19,-0.001,0.0,0.0,0.0
21/05/2022,01:00:19,0.001,0.0,0.0,0.0
21/05/2022,01:01:18,0.000,0.0,0.0,0.0
21/05/2022,01:02:18,0.000,0.0,0.0,0.0
21/05/2022,01:03:19,0.001,0.0,0.0,0.0
21/05/2022,01:04:18,0.000,0.0,0.0,0.0
21/05/2022,01:05:19,0.001,0.0,0.0,0.0
21/05/2022,01:06:18,0.002,0.0,0.0,0.0
21/05/2022,01:07:18,0.000,0.0,0.0,0.0
21/05/2022,01:08:18,0.001,0.0,0.0,0.0
21/05/2022,01:09:18,-0.001,0.0,0.0,0.0
21/05/2022,01:10:18,-0.001,0.0,0.0,0.0
21/05/2022,01:12:19,0.000,0.0,0.0,0.0
21/05/2022,01:13:18,0.000,0.0,0.0,0.0
21/05/2022,01:14:19,0.000,0.0,0.0,0.0
21/05/2022,01:15:18,0.001,0.0,0.0,0.0
21/05/2022,01:16:19,0.001,0.0,0.0,0.0
21/05/2022,01:17:18,0.000,0.0,0.0,0.0
21/05/2022,01:18:19,0.000,0.0,0.0,0.0
21/05/2022,01:19:18,0.001,0.0,0.0,0.0
21/05/2022,01:20:26,0.000,0.0,0.0,0.0
21/05/2022,01:22:19,0.000,0.0,0.0,0.0
21/05/2022,01:23:18,0.000,0.0,0.0,0.0
21/05/2022,01:24:19,0.000,0.0,0.0,0.0
21/05/2022,01:25:19,0.001,0.0,0.0,0.0
21/05/2022,01:27:19,0.001,0.0,0.0,0.0
21/05/2022,01:28:18,0.000,0.0,0.0,0.0
21/05/2022,01:29:19,0.000,0.0,0.0,0.0
21/05/2022,01:30:27,0.000,0.0,0.0,0.0
21/05/2022,01:32:19,0.000,0.0,0.0,0.0
21/05/2022,01:33:19,0.000,0.0,0.0,0.0
21/05/2022,01:34:18,-0.000,0.0,0.0,0.0
21/05/2022,01:35:19,0.000,0.0,0.0,0.0
21/05/2022,01:36:20,0.000,0.0,0.0,0.0
21/05/2022,01:37:18,0.000,0.0,0.0,0.0
21/05/2022,01:38:18,-0.001,0.0,0.0,0.0
21/05/2022,01:39:19,0.000,0.0,0.0,0.0
21/05/2022,01:40:27,-0.000,0.0,0.0,0.0
21/05/2022,01:42:19,0.000,0.0,0.0,0.0
21/05/2022,01:43:19,0.000,0.0,0.0,0.0
21/05/2022,01:44:19,0.000,0.0,0.0,0.0
21/05/2022,01:45:19,-0.000,0.0,0.0,0.0
21/05/2022,01:46:18,0.000,0.0,0.0,0.0
21/05/2022,01:47:19,0.000,0.0,0.0,0.0
21/05/2022,01:48:19,0.000,0.0,0.0,0.0
21/05/2022,01:49:18,0.000,0.0,0.0,0.0
21/05/2022,01:50:19,0.000,0.0,0.0,0.0
21/05/2022,01:51:18,0.000,0.0,0.0,0.0
21/05/2022,01:52:18,-0.001,0.0,0.0,0.0
21/05/2022,01:53:19,0.000,0.0,0.0,0.0
21/05/2022,01:54:18,-0.000,0.0,0.0,0.0
21/05/2022,01:55:18,-0.000,0.0,0.0,0.0
21/05/2022,01:56:19,0.000,0.0,0.0,0.0
21/05/2022,01:58:20,-0.001,0.0,0.0,0.0
21/05/2022,01:59:26,-0.001,0.0,0.0,0.0
21/05/2022,02:01:19,0.000,0.0,0.0,0.0
21/05/2022,02:02:19,0.000,0.0,0.0,0.0
21/05/2022,02:03:18,0.001,0.0,0.0,0.0
21/05/2022,02:04:18,-0.000,0.0,0.0,0.0
21/05/2022,02:05:18,0.000,0.0,0.0,0.0
21/05/2022,02:06:19,0.000,0.0,0.0,0.0
21/05/2022,02:07:19,-0.001,0.0,0.0,0.0
21/05/2022,02:08:18,-0.001,0.0,0.0,0.0
21/05/2022,02:09:27,-0.000,0.0,0.0,0.0
21/05/2022,02:11:20,0.000,0.0,0.0,0.0
21/05/2022,02:13:19,0.000,0.0,0.0,0.0
21/05/2022,02:14:18,0.000,0.0,0.0,0.0
21/05/2022,02:15:19,0.000,0.0,0.0,0.0
21/05/2022,02:16:18,0.000,0.0,0.0,0.0
21/05/2022,02:17:19,0.000,0.0,0.0,0.0
21/05/2022,02:18:19,0.000,0.0,0.0,0.0
21/05/2022,02:19:19,0.001,0.0,0.0,0.0
21/05/2022,02:20:18,0.001,0.0,0.0,0.0
21/05/2022,02:21:18,0.000,0.0,0.0,0.0
21/05/2022,02:22:19,0.000,0.0,0.0,0.0
21/05/2022,02:23:27,0.000,0.0,0.0,0.0
21/05/2022,02:25:19,-0.000,0.0,0.0,0.0
21/05/2022,02:26:18,0.001,0.0,0.0,0.0
21/05/2022,02:27:19,0.000,0.0,0.0,0.0
21/05/2022,02:29:20,0.000,0.0,0.0,0.0
21/05/2022,02:30:19,0.000,0.0,0.0,0.0
21/05/2022,02:31:19,0.001,0.0,0.0,0.0
21/05/2022,02:32:19,0.001,0.0,0.0,0.0
21/05/2022,02:33:26,0.000,0.0,0.0,0.0
21/05/2022,02:35:19,0.000,0.0,0.0,0.0
21/05/2022,02:36:18,0.001,0.0,0.0,0.0
21/05/2022,02:37:19,0.000,0.0,0.0,0.0
21/05/2022,02:38:19,0.000,0.0,0.0,0.0
21/05/2022,02:39:19,0.000,0.0,0.0,0.0
21/05/2022,02:40:18,0.000,0.0,0.0,0.0
21/05/2022,02:41:18,0.000,0.0,0.0,0.0
21/05/2022,02:42:21,0.001,0.0,0.0,0.0
21/05/2022,02:44:28,0.000,0.0,0.0,0.0
21/05/2022,02:46:20,0.000,0.0,0.0,0.0
21/05/2022,02:47:17,0.000,0.0,0.0,0.0
21/05/2022,02:48:19,0.000,0.0,0.0,0.0
21/05/2022,02:49:18,0.001,0.0,0.0,0.0
21/05/2022,02:50:19,0.000,0.0,0.0,0.0
21/05/2022,02:51:18,0.000,0.0,0.0,0.0
21/05/2022,02:52:19,0.000,0.0,0.0,0.0
21/05/2022,02:53:26,0.001,0.0,0.0,0.0
21/05/2022,02:55:19,0.002,0.0,0.0,0.0
21/05/2022,02:56:27,0.000,0.0,0.0,0.0
21/05/2022,02:58:20,-0.000,0.0,0.0,0.0
21/05/2022,03:00:27,0.000,0.0,0.0,0.0
21/05/2022,03:02:19,0.000,0.0,0.0,0.0
21/05/2022,03:03:19,0.001,0.0,0.0,0.0
21/05/2022,03:04:18,0.000,0.0,0.0,0.0
21/05/2022,03:05:18,-0.001,0.0,0.0,0.0
21/05/2022,03:06:27,0.000,0.0,0.0,0.0
21/05/2022,03:08:19,0.001,0.0,0.0,0.0
21/05/2022,03:09:27,0.000,0.0,0.0,0.0
21/05/2022,03:11:20,-0.000,0.0,0.0,0.0
21/05/2022,03:12:19,-0.000,0.0,0.0,0.0
21/05/2022,03:13:19,0.001,0.0,0.0,0.0
21/05/2022,03:14:18,0.001,0.0,0.0,0.0
21/05/2022,03:16:19,0.000,0.0,0.0,0.0
21/05/2022,03:17:19,-0.001,0.0,0.0,0.0
21/05/2022,03:18:19,0.000,0.0,0.0,0.0
21/05/2022,03:19:27,0.000,0.0,0.0,0.0
21/05/2022,03:21:20,0.000,0.0,0.0,0.0
21/05/2022,03:22:19,0.000,0.0,0.0,0.0
21/05/2022,03:23:18,0.000,0.0,0.0,0.0
21/05/2022,03:24:27,0.000,0.0,0.0,0.0
21/05/2022,03:26:28,0.001,0.0,0.0,0.0
21/05/2022,03:28:10,0.001,0.0,0.0,0.0
21/05/2022,03:29:20,0.000,0.0,0.0,0.0
21/05/2022,03:31:19,0.000,0.0,0.0,0.0
21/05/2022,03:32:27,0.000,0.0,0.0,0.0
21/05/2022,03:34:19,-0.000,0.0,0.0,0.0
21/05/2022,03:35:27,-0.000,0.0,0.0,0.0
21/05/2022,03:37:28,0.001,0.0,0.0,0.0
21/05/2022,03:39:19,0.001,0.0,0.0,0.0
21/05/2022,03:40:19,0.001,0.0,0.0,0.0
21/05/2022,03:41:35,0.000,0.0,0.0,0.0
21/05/2022,03:43:19,0.000,0.0,0.0,0.0
21/05/2022,03:44:19,0.001,0.0,0.0,0.0
21/05/2022,03:45:19,0.001,0.0,0.0,0.0
21/05/2022,03:47:20,0.001,0.0,0.0,0.0
21/05/2022,03:48:19,0.001,0.0,0.0,0.0
21/05/2022,03:49:19,0.001,0.0,0.0,0.0
21/05/2022,03:50:34,0.002,0.0,0.0,0.0
21/05/2022,03:52:19,0.001,0.0,0.0,0.0
21/05/2022,03:53:19,0.000,0.0,0.0,0.0
21/05/2022,03:55:20,0.001,0.0,0.0,0.0
21/05/2022,03:56:19,0.001,0.0,0.0,0.0
21/05/2022,03:57:19,0.001,0.0,0.0,0.0
21/05/2022,03:58:19,0.002,0.0,0.0,0.0
21/05/2022,03:59:18,0.001,0.0,0.0,0.0
21/05/2022,04:00:27,0.001,0.0,0.0,0.0
21/05/2022,04:02:20,0.002,0.0,0.0,0.0
21/05/2022,04:03:27,0.002,0.0,0.0,0.0
21/05/2022,04:05:19,0.002,0.0,0.0,0.0
21/05/2022,04:06:19,0.002,0.0,0.0,0.0
21/05/2022,04:07:18,0.002,0.0,0.0,0.0
21/05/2022,04:08:18,0.002,0.0,0.0,0.0
21/05/2022,04:10:19,0.002,0.0,0.0,0.0
21/05/2022,04:11:19,0.003,0.0,0.0,0.0
21/05/2022,04:12:19,0.003,0.0,0.0,0.0
21/05/2022,04:13:27,0.003,0.0,0.0,0.0
21/05/2022,04:15:19,0.003,0.0,0.0,0.0
21/05/2022,04:16:19,0.003,0.0,0.0,0.0
21/05/2022,04:18:20,0.004,0.0,0.0,0.0
21/05/2022,04:19:18,0.003,0.0,0.0,0.0
21/05/2022,04:20:19,0.003,0.0,0.0,0.0
21/05/2022,04:21:19,0.004,0.0,0.0,0.0
21/05/2022,04:22:18,0.004,0.0,0.0,0.0
21/05/2022,04:23:28,0.005,0.0,0.0,0.0
21/05/2022,04:25:20,0.006,0.0,0.0,0.0
21/05/2022,04:26:17,0.005,0.0,0.0,0.0
21/05/2022,04:27:19,0.005,0.0,0.0,0.0
21/05/2022,04:28:19,0.006,0.0,0.0,0.0
21/05/2022,04:29:19,0.006,0.0,0.0,0.0
21/05/2022,04:30:19,0.007,0.0,0.0,0.0
21/05/2022,04:31:20,0.006,0.0,0.0,0.0
21/05/2022,04:33:19,0.007,0.0,0.0,0.0
21/05/2022,04:34:19,0.007,0.0,0.0,0.0
21/05/2022,04:35:19,0.007,0.0,0.0,0.0
21/05/2022,04:36:27,0.008,0.0,0.001,0.001
21/05/2022,04:38:20,0.009,0.0,0.001,0.0
21/05/2022,04:39:27,0.009,0.0,0.001,0.0
21/05/2022,04:41:20,0.010,0.0,0.001,0.0
21/05/2022,04:42:18,0.011,0.0,0.001,0.0
21/05/2022,04:43:27,0.011,0.0,0.002,0.001
21/05/2022,04:45:19,0.012,0.0,0.002,0.0
21/05/2022,04:46:27,0.012,0.0,0.002,0.0
21/05/2022,04:48:20,0.014,0.0,0.003,0.001
21/05/2022,04:49:18,0.013,0.0,0.003,0.0
21/05/2022,04:50:20,0.014,0.0,0.003,0.0
21/05/2022,04:51:18,0.014,0.0,0.003,0.0
21/05/2022,04:52:18,0.015,0.0,0.004,0.001
21/05/2022,04:53:28,0.015,0.0,0.004,0.0
21/05/2022,04:55:19,0.016,0.0,0.004,0.0
21/05/2022,04:56:28,0.017,0.0,0.005,0.001
21/05/2022,04:58:19,0.018,0.0,0.005,0.0
21/05/2022,04:59:19,0.018,0.0,0.005,0.0
21/05/2022,05:00:19,0.019,0.0,0.006,0.001
21/05/2022,05:01:19,0.019,0.0,0.006,0.0
21/05/2022,05:02:19,0.020,0.0,0.006,0.0
21/05/2022,05:04:28,0.021,0.0,0.007,0.001
21/05/2022,05:06:06,0.022,0.0,0.008,0.001
21/05/2022,05:07:20,0.023,0.0,0.008,0.0
21/05/2022,05:08:19,0.024,0.0,0.009,0.001
21/05/2022,05:09:19,0.024,0.0,0.009,0.0
21/05/2022,05:10:19,0.026,0.0,0.009,0.0
21/05/2022,05:11:19,0.027,0.0,0.01,0.001
21/05/2022,05:12:19,0.027,0.0,0.01,0.0
21/05/2022,05:13:19,0.028,0.0,0.011,0.001
21/05/2022,05:14:19,0.029,0.0,0.011,0.0
21/05/2022,05:15:18,0.030,0.0,0.012,0.001
21/05/2022,05:16:19,0.031,0.0,0.012,0.0
21/05/2022,05:17:27,0.032,0.0,0.013,0.001
21/05/2022,05:19:19,0.033,0.0,0.014,0.001
21/05/2022,05:20:19,0.035,0.0,0.014,0.0
21/05/2022,05:21:19,0.036,0.0,0.015,0.001
21/05/2022,05:22:19,0.037,0.0,0.016,0.001
21/05/2022,05:23:19,0.038,0.0,0.016,0.0
21/05/2022,05:24:19,0.039,0.0,0.017,0.001
21/05/2022,05:25:19,0.040,0.0,0.017,0.0
21/05/2022,05:26:18,0.041,0.0,0.018,0.001
21/05/2022,05:27:27,0.042,0.0,0.019,0.001
21/05/2022,05:29:20,0.044,0.0,0.02,0.001
21/05/2022,05:30:19,0.046,0.0,0.021,0.001
21/05/2022,05:31:19,0.048,0.0,0.022,0.001
21/05/2022,05:32:19,0.049,0.0,0.023,0.001
21/05/2022,05:33:19,0.050,0.0,0.023,0.0
21/05/2022,05:35:19,0.052,0.0,0.025,0.002
21/05/2022,05:36:18,0.052,0.0,0.026,0.001
21/05/2022,05:37:29,0.053,0.0,0.027,0.001
21/05/2022,05:39:20,0.057,0.0,0.029,0.002
21/05/2022,05:40:26,0.059,0.0,0.03,0.001
21/05/2022,05:42:20,0.064,0.0,0.032,0.002
21/05/2022,05:43:19,0.066,0.0,0.033,0.001
21/05/2022,05:44:19,0.067,0.0,0.034,0.001
21/05/2022,05:45:19,0.068,0.0,0.035,0.001
21/05/2022,05:46:19,0.069,0.0,0.036,0.001
21/05/2022,05:47:19,0.070,0.0,0.037,0.001
21/05/2022,05:48:19,0.071,0.0,0.039,0.002
21/05/2022,05:49:19,0.071,0.0,0.04,0.001
21/05/2022,05:51:28,0.073,0.0,0.042,0.002
21/05/2022,05:53:28,0.075,0.0,0.045,0.003
21/05/2022,05:55:20,0.076,0.0,0.047,0.002
21/05/2022,05:57:19,0.077,0.0,0.05,0.003
21/05/2022,05:58:19,0.079,0.0,0.051,0.001
21/05/2022,05:59:19,0.080,0.0,0.052,0.001
21/05/2022,06:00:27,0.083,0.0,0.054,0.002
21/05/2022,06:02:20,0.090,0.0,0.057,0.003
21/05/2022,06:03:18,0.094,0.0,0.058,0.001
21/05/2022,06:04:18,0.098,0.0,0.06,0.002
21/05/2022,06:05:19,0.102,0.0,0.061,0.001
21/05/2022,06:07:20,0.100,0.0,0.065,0.004
21/05/2022,06:08:18,0.097,0.0,0.066,0.001
21/05/2022,06:09:19,0.096,0.0,0.068,0.002
21/05/2022,06:10:27,0.093,0.0,0.07,0.002
21/05/2022,06:12:19,0.093,0.0,0.073,0.003
21/05/2022,06:13:19,0.094,0.0,0.074,0.001
21/05/2022,06:14:19,0.095,0.0,0.076,0.002
21/05/2022,06:15:19,0.096,0.0,0.077,0.001
21/05/2022,06:16:19,0.096,0.0,0.079,0.002
21/05/2022,06:17:19,0.096,0.0,0.081,0.002
21/05/2022,06:18:19,0.097,0.0,0.082,0.001
21/05/2022,06:19:19,0.097,0.0,0.084,0.002
21/05/2022,06:20:19,0.097,0.0,0.085,0.001
21/05/2022,06:21:19,0.098,0.0,0.087,0.002
21/05/2022,06:23:20,0.098,0.0,0.09,0.003
21/05/2022,06:24:18,0.099,0.0,0.092,0.002
21/05/2022,06:25:19,0.100,0.0,0.094,0.002
21/05/2022,06:26:19,0.103,0.0,0.095,0.001
21/05/2022,06:27:19,0.107,0.0,0.097,0.002
21/05/2022,06:28:19,0.112,0.0,0.099,0.002
21/05/2022,06:29:19,0.118,0.0,0.101,0.002
21/05/2022,06:30:19,0.123,0.0,0.103,0.002
21/05/2022,06:31:19,0.127,0.0,0.105,0.002
21/05/2022,06:32:20,0.132,0.0,0.107,0.002
21/05/2022,06:33:27,0.134,0.0,0.11,0.003
21/05/2022,06:35:20,0.135,0.0,0.114,0.004
21/05/2022,06:36:18,0.137,0.0,0.116,0.002
21/05/2022,06:37:19,0.139,0.0,0.118,0.002
21/05/2022,06:39:20,0.142,0.0,0.123,0.005
21/05/2022,06:40:19,0.144,0.0,0.125,0.002
21/05/2022,06:41:19,0.145,0.0,0.128,0.003
21/05/2022,06:42:19,0.148,0.0,0.13,0.002
21/05/2022,06:43:19,0.150,0.0,0.133,0.003
21/05/2022,06:44:28,0.151,0.0,0.136,0.003
21/05/2022,06:46:19,0.160,0.0,0.14,0.004
21/05/2022,06:47:19,0.165,0.0,0.143,0.003
21/05/2022,06:48:19,0.169,0.0,0.146,0.003
21/05/2022,06:49:19,0.175,0.0,0.149,0.003
21/05/2022,06:50:19,0.180,0.0,0.152,0.003
21/05/2022,06:51:19,0.186,0.0,0.155,0.003
21/05/2022,06:52:19,0.191,0.0,0.158,0.003
21/05/2022,06:53:19,0.198,0.0,0.161,0.003
21/05/2022,06:55:20,0.213,0.0,0.168,0.007
21/05/2022,06:56:18,0.218,1.0,0.171,0.003
21/05/2022,06:57:28,0.222,1.0,0.176,0.005
21/05/2022,06:59:20,0.227,1.0,0.183,0.007
21/05/2022,07:00:18,0.229,1.0,0.186,0.003
21/05/2022,07:01:19,0.232,1.0,0.19,0.004
21/05/2022,07:02:19,0.234,1.0,0.194,0.004
21/05/2022,07:03:19,0.236,1.0,0.198,0.004
21/05/2022,07:04:19,0.240,1.0,0.202,0.004
21/05/2022,07:05:19,0.243,1.0,0.206,0.004
21/05/2022,07:06:19,0.248,1.0,0.21,0.004
21/05/2022,07:07:19,0.247,1.0,0.214,0.004
21/05/2022,07:08:19,0.247,1.0,0.218,0.004
21/05/2022,07:09:19,0.246,1.0,0.222,0.004
21/05/2022,07:11:28,0.238,1.0,0.231,0.009
21/05/2022,07:13:20,0.228,1.0,0.238,0.007
21/05/2022,07:14:18,0.225,1.0,0.242,0.004
21/05/2022,07:15:19,0.225,1.0,0.246,0.004
21/05/2022,07:16:19,0.225,1.0,0.25,0.004
21/05/2022,07:17:19,0.227,1.0,0.253,0.003
21/05/2022,07:18:20,0.230,1.0,0.257,0.004
21/05/2022,07:19:19,0.235,1.0,0.261,0.004
21/05/2022,07:20:27,0.237,1.0,0.266,0.005
21/05/2022,07:22:20,0.237,1.0,0.273,0.007
21/05/2022,07:23:19,0.238,1.0,0.277,0.004
21/05/2022,07:24:19,0.244,1.0,0.281,0.004
21/05/2022,07:25:19,0.252,1.0,0.285,0.004
21/05/2022,07:27:20,0.272,1.0,0.294,0.009
21/05/2022,07:28:19,0.283,1.0,0.299,0.005
21/05/2022,07:29:19,0.292,1.0,0.303,0.004
21/05/2022,07:30:19,0.300,1.0,0.308,0.005
21/05/2022,07:31:19,0.307,1.0,0.313,0.005
21/05/2022,07:32:19,0.311,1.0,0.318,0.005
21/05/2022,07:33:19,0.317,1.0,0.324,0.006
21/05/2022,07:34:19,0.327,1.0,0.329,0.005
21/05/2022,07:35:19,0.333,1.0,0.335,0.006
21/05/2022,07:36:28,0.343,1.0,0.341,0.006
21/05/2022,07:38:28,0.367,1.0,0.353,0.012
21/05/2022,07:40:20,0.394,1.0,0.365,0.012
21/05/2022,07:42:20,0.415,1.0,0.378,0.013
21/05/2022,07:43:18,0.442,1.0,0.385,0.007
21/05/2022,07:44:27,0.465,1.0,0.394,0.009
21/05/2022,07:46:20,0.501,1.0,0.409,0.015
21/05/2022,07:47:18,0.477,1.0,0.417,0.008
21/05/2022,07:48:19,0.487,1.0,0.425,0.008
21/05/2022,07:49:19,0.493,1.0,0.433,0.008
21/05/2022,07:50:19,0.527,1.0,0.442,0.009
21/05/2022,07:51:19,0.509,1.0,0.451,0.009
21/05/2022,07:52:20,0.512,1.0,0.459,0.008
21/05/2022,07:53:19,0.542,1.0,0.468,0.009
21/05/2022,07:54:28,0.569,1.0,0.479,0.011
21/05/2022,07:56:20,0.572,1.0,0.496,0.017
21/05/2022,07:58:28,0.582,1.0,0.517,0.021
21/05/2022,08:00:19,0.558,1.0,0.535,0.018
21/05/2022,08:01:19,0.545,1.0,0.544,0.009
21/05/2022,08:02:19,0.536,1.0,0.553,0.009
21/05/2022,08:03:19,0.528,1.0,0.562,0.009
21/05/2022,08:04:19,0.524,1.0,0.571,0.009
21/05/2022,08:05:19,0.529,1.0,0.579,0.008
21/05/2022,08:06:19,0.530,1.0,0.588,0.009
21/05/2022,08:07:27,0.522,1.0,0.598,0.01
21/05/2022,08:09:20,0.548,1.0,0.615,0.017
21/05/2022,08:10:18,0.568,1.0,0.624,0.009
21/05/2022,08:11:19,0.586,1.0,0.634,0.01
21/05/2022,08:12:19,0.595,1.0,0.644,0.01
21/05/2022,08:14:20,0.614,1.0,0.664,0.02
21/05/2022,08:15:18,0.598,1.0,0.673,0.009
21/05/2022,08:16:19,0.582,1.0,0.684,0.011
21/05/2022,08:17:28,0.593,1.0,0.695,0.011
21/05/2022,08:19:20,0.618,1.0,0.714,0.019
21/05/2022,08:20:20,0.633,1.0,0.724,0.01
21/05/2022,08:21:19,0.645,1.0,0.734,0.01
21/05/2022,08:22:19,0.661,2.0,0.745,0.011
21/05/2022,08:23:19,0.663,2.0,0.756,0.011
21/05/2022,08:24:19,0.670,2.0,0.768,0.012
21/05/2022,08:25:19,0.668,2.0,0.778,0.01
21/05/2022,08:26:19,0.669,2.0,0.79,0.012
21/05/2022,08:27:19,0.680,2.0,0.801,0.011
21/05/2022,08:28:19,0.688,2.0,0.812,0.011
21/05/2022,08:30:20,0.685,2.0,0.836,0.024
21/05/2022,08:31:18,0.665,2.0,0.847,0.011
21/05/2022,08:32:19,0.676,2.0,0.858,0.011
21/05/2022,08:33:27,0.689,2.0,0.871,0.013
21/05/2022,08:35:20,0.716,2.0,0.893,0.022
21/05/2022,08:36:19,0.733,2.0,0.905,0.012
21/05/2022,08:37:20,0.761,2.0,0.918,0.013
21/05/2022,08:38:19,0.757,2.0,0.93,0.012
21/05/2022,08:39:19,0.754,2.0,0.943,0.013
21/05/2022,08:40:20,0.737,2.0,0.955,0.012
21/05/2022,08:41:19,0.715,2.0,0.967,0.012
21/05/2022,08:42:19,0.713,2.0,0.979,0.012
21/05/2022,08:43:20,0.719,2.0,0.991,0.012
21/05/2022,08:45:20,0.732,2.0,1.015,0.024
21/05/2022,08:46:28,0.743,2.0,1.029,0.014
21/05/2022,08:48:20,0.741,2.0,1.052,0.023
21/05/2022,08:49:18,0.723,2.0,1.064,0.012
21/05/2022,08:50:19,0.729,2.0,1.076,0.012
21/05/2022,08:51:19,0.721,2.0,1.088,0.012
21/05/2022,08:52:19,0.731,2.0,1.1,0.012
21/05/2022,08:53:20,0.748,2.0,1.113,0.013
21/05/2022,08:54:20,0.781,2.0,1.126,0.013
21/05/2022,08:55:19,0.807,2.0,1.139,0.013
21/05/2022,08:56:28,0.798,2.0,1.155,0.016
21/05/2022,08:58:20,0.656,2.0,1.178,0.023
21/05/2022,09:00:20,0.552,1.0,1.197,0.019
21/05/2022,09:01:20,0.536,1.0,1.207,0.01
21/05/2022,09:02:19,0.538,1.0,1.215,0.008
21/05/2022,09:03:20,0.543,1.0,1.224,0.009
21/05/2022,09:04:19,0.548,1.0,1.234,0.01
21/05/2022,09:05:19,0.556,1.0,1.243,0.009
21/05/2022,09:06:20,0.567,1.0,1.252,0.009
21/05/2022,09:07:19,0.583,1.0,1.262,0.01
21/05/2022,09:08:19,0.598,1.0,1.272,0.01
21/05/2022,09:09:19,0.614,1.0,1.281,0.009
21/05/2022,09:10:19,0.636,1.0,1.292,0.011
21/05/2022,09:11:19,0.657,2.0,1.303,0.011
21/05/2022,09:12:19,0.678,2.0,1.314,0.011
21/05/2022,09:13:20,0.691,2.0,1.326,0.012
21/05/2022,09:14:19,0.688,2.0,1.337,0.011
21/05/2022,09:16:20,0.684,2.0,1.36,0.023
21/05/2022,09:17:18,0.683,2.0,1.371,0.011
21/05/2022,09:18:36,0.678,2.0,1.386,0.015
21/05/2022,09:20:28,0.693,2.0,1.407,0.021
21/05/2022,09:22:20,0.722,2.0,1.429,0.022
21/05/2022,09:23:18,0.740,2.0,1.441,0.012
21/05/2022,09:24:20,0.759,2.0,1.454,0.013
21/05/2022,09:25:19,0.796,2.0,1.467,0.013
21/05/2022,09:26:20,0.830,2.0,1.48,0.013
21/05/2022,09:27:19,0.881,2.0,1.494,0.014
21/05/2022,09:28:20,0.927,2.0,1.509,0.015
21/05/2022,09:29:19,0.977,2.0,1.526,0.017
21/05/2022,09:30:28,1.146,3.0,1.545,0.019
21/05/2022,09:32:20,1.214,3.0,1.581,0.036
21/05/2022,09:33:20,1.163,3.0,1.601,0.02
21/05/2022,09:34:19,1.138,3.0,1.619,0.018
21/05/2022,09:35:20,1.209,3.0,1.64,0.021
21/05/2022,09:36:28,1.112,3.0,1.663,0.023
21/05/2022,09:38:20,1.068,2.0,1.697,0.034
21/05/2022,09:39:18,1.043,2.0,1.714,0.017
21/05/2022,09:40:19,0.984,2.0,1.731,0.017
21/05/2022,09:41:19,0.900,2.0,1.746,0.015
21/05/2022,09:42:19,0.877,2.0,1.761,0.015
21/05/2022,09:43:20,0.880,2.0,1.776,0.015
21/05/2022,09:44:19,0.880,2.0,1.791,0.015
21/05/2022,09:45:19,0.881,2.0,1.805,0.014
21/05/2022,09:46:27,0.867,2.0,1.822,0.017
21/05/2022,09:48:20,0.961,2.0,1.85,0.028
21/05/2022,09:49:28,1.021,2.0,1.869,0.019
21/05/2022,09:51:20,0.988,2.0,1.9,0.031
21/05/2022,09:52:18,0.979,2.0,1.916,0.016
21/05/2022,09:53:19,0.968,2.0,1.933,0.017
21/05/2022,09:54:19,0.944,2.0,1.949,0.016
21/05/2022,09:55:20,0.916,2.0,1.964,0.015
21/05/2022,09:56:28,0.902,2.0,1.982,0.018
21/05/2022,09:58:20,0.882,2.0,2.009,0.027
21/05/2022,10:00:28,0.840,2.0,2.04,0.031
21/05/2022,10:02:20,0.824,2.0,2.066,0.026
21/05/2022,10:04:20,0.822,2.0,2.093,0.027
21/05/2022,10:05:18,0.840,2.0,2.106,0.013
21/05/2022,10:06:27,0.946,2.0,2.124,0.018
21/05/2022,10:08:20,1.059,2.0,2.155,0.031
21/05/2022,10:09:26,1.076,2.0,2.175,0.02
21/05/2022,10:11:20,1.128,3.0,2.21,0.035
21/05/2022,10:12:18,1.127,3.0,2.228,0.018
21/05/2022,10:13:19,1.122,3.0,2.247,0.019
21/05/2022,10:14:19,1.121,3.0,2.266,0.019
21/05/2022,10:15:12,1.117,3.0,2.282,0.016
21/05/2022,10:16:20,1.120,3.0,2.303,0.021
21/05/2022,10:17:20,1.155,3.0,2.322,0.019
21/05/2022,10:18:20,1.181,3.0,2.342,0.02
21/05/2022,10:20:20,1.192,3.0,2.381,0.039
21/05/2022,10:21:18,1.184,3.0,2.4,0.019
21/05/2022,10:22:28,1.166,3.0,2.423,0.023
21/05/2022,10:24:20,1.160,3.0,2.459,0.036
21/05/2022,10:25:18,1.208,3.0,2.478,0.019
21/05/2022,10:26:20,1.228,3.0,2.499,0.021
21/05/2022,10:27:20,1.188,3.0,2.52,0.021
21/05/2022,10:28:19,1.113,3.0,2.539,0.019
21/05/2022,10:29:19,1.149,3.0,2.557,0.018
21/05/2022,10:30:19,1.216,3.0,2.577,0.02
21/05/2022,10:31:19,1.224,3.0,2.597,0.02
21/05/2022,10:32:20,1.209,3.0,2.618,0.021
21/05/2022,10:33:20,1.185,3.0,2.638,0.02
21/05/2022,10:35:20,1.088,3.0,2.676,0.038
21/05/2022,10:36:18,1.002,2.0,2.693,0.017
21/05/2022,10:37:19,0.962,2.0,2.709,0.016
21/05/2022,10:38:19,0.903,2.0,2.725,0.016
21/05/2022,10:39:20,0.865,2.0,2.74,0.015
21/05/2022,10:40:19,0.802,2.0,2.753,0.013
21/05/2022,10:41:20,0.751,2.0,2.766,0.013
21/05/2022,10:42:20,0.731,2.0,2.779,0.013
21/05/2022,10:43:19,0.745,2.0,2.791,0.012
21/05/2022,10:44:20,0.805,2.0,2.804,0.013
21/05/2022,10:45:19,0.882,2.0,2.818,0.014
21/05/2022,10:46:20,0.946,2.0,2.833,0.015
21/05/2022,10:47:19,1.017,2.0,2.85,0.017
21/05/2022,10:48:19,1.096,3.0,2.867,0.017
21/05/2022,10:49:28,1.195,3.0,2.889,0.022
21/05/2022,10:51:20,1.285,3.0,2.928,0.039
21/05/2022,10:52:18,1.294,3.0,2.948,0.02
21/05/2022,10:53:20,1.256,3.0,2.971,0.023
21/05/2022,10:54:20,1.311,3.0,2.992,0.021
21/05/2022,10:55:20,1.374,3.0,3.014,0.022
21/05/2022,10:56:19,1.409,3.0,3.037,0.023
21/05/2022,10:57:19,1.398,3.0,3.061,0.024
21/05/2022,10:58:19,1.350,3.0,3.084,0.023
21/05/2022,10:59:28,1.350,3.0,3.109,0.025
21/05/2022,11:01:20,1.424,3.0,3.152,0.043
21/05/2022,11:02:26,1.441,3.0,3.179,0.027
21/05/2022,11:04:20,1.503,3.0,3.225,0.046
21/05/2022,11:05:20,1.533,4.0,3.251,0.026
21/05/2022,11:07:20,1.411,3.0,3.3,0.049
21/05/2022,11:08:20,1.339,3.0,3.323,0.023
21/05/2022,11:09:19,1.286,3.0,3.345,0.022
21/05/2022,11:10:20,1.239,3.0,3.366,0.021
21/05/2022,11:11:18,1.202,3.0,3.385,0.019
21/05/2022,11:12:28,1.180,3.0,3.408,0.023
21/05/2022,11:14:21,1.018,2.0,3.443,0.035
21/05/2022,11:15:26,0.919,2.0,3.461,0.018
21/05/2022,11:17:20,0.943,2.0,3.49,0.029
21/05/2022,11:18:28,0.995,2.0,3.508,0.018
21/05/2022,11:20:20,0.992,2.0,3.539,0.031
21/05/2022,11:22:20,0.915,2.0,3.571,0.032
21/05/2022,11:23:19,0.897,2.0,3.586,0.015
21/05/2022,11:24:20,0.874,2.0,3.601,0.015
21/05/2022,11:25:20,0.831,2.0,3.615,0.014
21/05/2022,11:26:20,0.779,2.0,3.629,0.014
21/05/2022,11:27:19,0.777,2.0,3.641,0.012
21/05/2022,11:28:27,0.808,2.0,3.656,0.015
21/05/2022,11:30:20,0.901,2.0,3.683,0.027
21/05/2022,11:31:20,0.973,2.0,3.698,0.015
21/05/2022,11:32:20,1.051,2.0,3.715,0.017
21/05/2022,11:33:19,1.118,3.0,3.733,0.018
21/05/2022,11:34:19,1.119,3.0,3.754,0.021
21/05/2022,11:35:19,1.099,3.0,3.772,0.018
21/05/2022,11:36:19,1.072,2.0,3.789,0.017
21/05/2022,11:38:20,0.974,2.0,3.824,0.035
21/05/2022,11:39:20,0.937,2.0,3.84,0.016
21/05/2022,11:40:20,0.927,2.0,3.856,0.016
21/05/2022,11:42:21,0.931,2.0,3.887,0.031
21/05/2022,11:43:18,0.930,2.0,3.902,0.015
21/05/2022,11:44:20,0.926,2.0,3.918,0.016
21/05/2022,11:45:10,0.931,2.0,3.93,0.012
21/05/2022,11:46:22,0.995,2.0,3.95,0.02
21/05/2022,11:48:20,1.213,3.0,3.986,0.036
21/05/2022,11:49:18,1.327,3.0,4.006,0.02
21/05/2022,11:50:19,1.418,3.0,4.03,0.024
21/05/2022,11:51:30,1.566,4.0,4.059,0.029
21/05/2022,11:53:20,1.676,4.0,4.11,0.051
21/05/2022,11:54:26,1.754,4.0,4.141,0.031
21/05/2022,11:56:21,2.209,5.0,4.205,0.064
21/05/2022,11:57:19,1.889,4.0,4.244,0.039
21/05/2022,11:58:20,1.464,3.0,4.27,0.026
21/05/2022,11:59:20,1.482,3.0,4.295,0.025
21/05/2022,12:00:19,1.408,3.0,4.319,0.024